Time,TemperatureF,DewpointF,PressureIn,WindDirection,WindDirectionDegrees,WindSpeedMPH,WindSpeedGustMPH,Humidity,HourlyPrecipIn,Conditions,Clouds,dailyrainin,SolarRadiationWatts/m^2,SoftwareType,DateUTC
2013-02-21 00:01:00,37.0,37.0,-100.00,South,172,0.0,0.0,99,0.00,,,-99.99,0.000000,,2013-02-21 08:01:00,
2013-02-21 00:11:00,37.0,37.0,-100.00,South,172,0.0,0.0,99,0.00,,,-99.99,0.000000,,2013-02-21 08:11:00,
2013-02-21 00:42:00,37.0,36.0,-100.00,SSW,196,0.0,0.0,96,0.01,,,0.18,0.000000,,2013-02-21 08:42:00,
2013-02-21 00:52:00,37.0,36.0,-100.00,SSW,196,0.0,0.0,96,0.01,,,0.18,0.000000,,2013-02-21 08:52:00,
2013-02-21 01:01:00,37.0,36.0,-100.00,SSW,196,0.0,0.0,96,0.01,,,0.18,0.000000,,2013-02-21 09:01:00,
2013-02-21 01:11:00,37.0,36.0,-100.00,SSW,196,0.0,0.0,96,0.01,,,0.18,0.000000,,2013-02-21 09:11:00,
2013-02-21 01:42:00,37.0,36.0,-100.00,ESE,105,0.0,1.0,97,0.00,,,0.18,0.000000,,2013-02-21 09:42:00,
2013-02-21 01:52:00,37.0,36.0,-100.00,ESE,105,0.0,1.0,97,0.00,,,0.18,0.000000,,2013-02-21 09:52:00,
2013-02-21 02:01:00,37.0,36.0,-100.00,ESE,105,0.0,1.0,97,0.00,,,0.18,0.000000,,2013-02-21 10:01:00,
2013-02-21 02:11:00,37.0,36.0,-100.00,ESE,105,0.0,1.0,97,0.00,,,0.18,0.000000,,2013-02-21 10:11:00,
2013-02-21 02:31:00,38.0,37.0,-100.00,ESE,115,0.0,0.0,96,0.00,,,0.18,0.000000,,2013-02-21 10:31:00,
2013-02-21 02:41:00,38.0,37.0,-100.00,ESE,115,0.0,0.0,96,0.00,,,0.18,0.000000,,2013-02-21 10:41:00,
2013-02-21 02:51:00,38.0,37.0,-100.00,ESE,115,0.0,0.0,96,0.00,,,0.18,0.000000,,2013-02-21 10:51:00,
2013-02-21 03:01:00,38.0,37.0,-100.00,ESE,115,0.0,0.0,96,0.00,,,0.18,0.000000,,2013-02-21 11:01:00,
2013-02-21 03:11:00,38.0,37.0,-100.00,ESE,115,0.0,0.0,96,0.00,,,0.18,0.000000,,2013-02-21 11:11:00,
2013-02-21 03:41:00,38.0,36.0,-100.00,SSW,212,0.0,0.0,94,0.00,,,0.18,0.000000,,2013-02-21 11:41:00,
2013-02-21 03:51:00,38.0,36.0,-100.00,SSW,212,0.0,0.0,94,0.00,,,0.18,0.000000,,2013-02-21 11:51:00,
2013-02-21 04:01:00,38.0,36.0,-100.00,SSW,212,0.0,0.0,94,0.00,,,0.18,0.000000,,2013-02-21 12:01:00,
2013-02-21 04:11:00,38.0,36.0,-100.00,SSW,212,0.0,0.0,94,0.00,,,0.18,0.000000,,2013-02-21 12:11:00,
2013-02-21 04:32:00,38.0,36.0,-100.00,SSE,157,0.0,0.0,94,0.00,,,-99.99,0.000000,,2013-02-21 12:32:00,
2013-02-21 04:43:00,38.0,36.0,-100.00,SSE,157,0.0,0.0,94,0.00,,,-99.99,0.000000,,2013-02-21 12:43:00,
2013-02-21 04:52:00,38.0,36.0,-100.00,SSE,157,0.0,0.0,94,0.00,,,-99.99,0.000000,,2013-02-21 12:52:00,
2013-02-21 05:01:00,38.0,36.0,-100.00,SSE,157,0.0,0.0,94,0.00,,,-99.99,0.000000,,2013-02-21 13:01:00,
2013-02-21 05:12:00,38.0,36.0,-100.00,SSE,157,0.0,0.0,94,0.00,,,-99.99,0.000000,,2013-02-21 13:12:00,
2013-02-21 06:32:00,38.0,36.0,-100.00,ESE,113,0.0,0.0,94,-99.99,,,0.18,0.000000,,2013-02-21 14:32:00,
2013-02-21 06:42:00,38.0,36.0,-100.00,ESE,113,0.0,0.0,94,-99.99,,,0.18,0.000000,,2013-02-21 14:42:00,
2013-02-21 06:52:00,38.0,36.0,-100.00,ESE,113,0.0,0.0,94,-99.99,,,0.18,0.000000,,2013-02-21 14:52:00,
2013-02-21 07:01:00,38.0,36.0,-100.00,ESE,113,0.0,0.0,94,-99.99,,,0.18,0.000000,,2013-02-21 15:01:00,
2013-02-21 07:12:00,38.0,36.0,-100.00,ESE,113,0.0,0.0,94,-99.99,,,0.18,0.000000,,2013-02-21 15:12:00,
2013-02-21 07:32:00,38.0,36.0,-100.00,SSE,163,0.0,0.0,92,0.00,,,0.18,1.000000,,2013-02-21 15:32:00,
2013-02-21 07:42:00,38.0,36.0,-100.00,SSE,163,0.0,0.0,92,0.00,,,0.18,1.000000,,2013-02-21 15:42:00,
2013-02-21 07:52:00,38.0,36.0,-100.00,SSE,163,0.0,0.0,92,0.00,,,0.18,1.000000,,2013-02-21 15:52:00,
2013-02-21 08:01:00,38.0,36.0,-100.00,SSE,163,0.0,0.0,92,0.00,,,0.18,1.000000,,2013-02-21 16:01:00,
2013-02-21 08:12:00,38.0,36.0,-100.00,SSE,163,0.0,0.0,92,0.00,,,0.18,1.000000,,2013-02-21 16:12:00,
2013-02-21 08:42:00,39.0,37.0,-100.00,SSE,153,0.0,0.0,91,0.00,,,0.18,23.000000,,2013-02-21 16:42:00,
2013-02-21 08:52:00,39.0,37.0,-100.00,SSE,153,0.0,0.0,91,0.00,,,0.18,23.000000,,2013-02-21 16:52:00,
2013-02-21 09:01:00,39.0,37.0,-100.00,SSE,153,0.0,0.0,91,0.00,,,0.18,23.000000,,2013-02-21 17:01:00,
2013-02-21 09:11:00,39.0,37.0,-100.00,SSE,153,0.0,0.0,91,0.00,,,0.18,23.000000,,2013-02-21 17:11:00,
2013-02-21 09:32:00,39.0,37.0,-100.00,SSW,206,1.0,6.0,92,0.01,,,0.19,64.000000,,2013-02-21 17:32:00,
2013-02-21 09:42:00,39.0,37.0,-100.00,SSW,206,1.0,6.0,92,0.01,,,0.19,64.000000,,2013-02-21 17:42:00,
2013-02-21 09:52:00,39.0,37.0,-100.00,SSW,206,1.0,6.0,92,0.01,,,0.19,64.000000,,2013-02-21 17:52:00,
2013-02-21 10:01:00,39.0,37.0,-100.00,SSW,206,1.0,6.0,92,0.01,,,0.19,64.000000,,2013-02-21 18:01:00,
2013-02-21 10:11:00,39.0,37.0,-100.00,SSW,206,1.0,6.0,92,0.01,,,0.19,64.000000,,2013-02-21 18:11:00,
2013-02-21 11:42:00,42.0,38.0,-100.00,South,185,0.0,8.0,86,-99.99,,,0.21,177.000000,,2013-02-21 19:42:00,
2013-02-21 11:52:00,42.0,38.0,-100.00,South,185,0.0,8.0,86,-99.99,,,0.21,177.000000,,2013-02-21 19:52:00,
2013-02-21 12:01:00,42.0,38.0,-100.00,South,185,0.0,8.0,86,-99.99,,,0.21,177.000000,,2013-02-21 20:01:00,
2013-02-21 12:11:00,42.0,38.0,-100.00,South,185,0.0,8.0,86,-99.99,,,0.21,177.000000,,2013-02-21 20:11:00,
2013-02-21 12:42:00,41.0,39.0,-100.00,SSW,197,0.0,8.0,91,0.01,,,0.22,108.000000,,2013-02-21 20:42:00,
2013-02-21 12:52:00,41.0,39.0,-100.00,SSW,197,0.0,8.0,91,0.01,,,0.22,108.000000,,2013-02-21 20:52:00,
2013-02-21 13:02:00,41.0,39.0,-100.00,SSW,197,0.0,8.0,91,0.01,,,0.22,108.000000,,2013-02-21 21:02:00,
2013-02-21 13:11:00,41.0,39.0,-100.00,SSW,197,0.0,8.0,91,0.01,,,0.22,108.000000,,2013-02-21 21:11:00,
2013-02-21 13:42:00,41.0,38.0,-100.00,SSW,204,1.0,12.0,90,0.02,,,0.24,135.000000,,2013-02-21 21:42:00,
2013-02-21 13:52:00,41.0,38.0,-100.00,SSW,204,1.0,12.0,90,0.02,,,0.24,135.000000,,2013-02-21 21:52:00,
2013-02-21 14:01:00,41.0,38.0,-100.00,SSW,204,1.0,12.0,90,0.02,,,0.24,135.000000,,2013-02-21 22:01:00,
2013-02-21 14:11:00,41.0,38.0,-100.00,SSW,204,1.0,12.0,90,0.02,,,0.24,135.000000,,2013-02-21 22:11:00,
2013-02-21 14:42:00,40.0,38.0,-100.00,South,190,1.0,11.0,93,0.03,,,0.27,79.000000,,2013-02-21 22:42:00,
2013-02-21 14:52:00,40.0,38.0,-100.00,South,190,1.0,11.0,93,0.03,,,0.27,79.000000,,2013-02-21 22:52:00,
2013-02-21 15:01:00,40.0,38.0,-100.00,South,190,1.0,11.0,93,0.03,,,0.27,79.000000,,2013-02-21 23:01:00,
2013-02-21 15:11:00,40.0,38.0,-100.00,South,190,1.0,11.0,93,0.03,,,0.27,79.000000,,2013-02-21 23:11:00,
2013-02-21 15:42:00,40.0,38.0,-100.00,South,176,0.0,8.0,94,0.00,,,0.27,68.000000,,2013-02-21 23:42:00,
2013-02-21 15:52:00,40.0,38.0,-100.00,South,176,0.0,8.0,94,0.00,,,0.27,68.000000,,2013-02-21 23:52:00,
2013-02-21 16:01:00,40.0,38.0,-100.00,South,176,0.0,8.0,94,0.00,,,0.27,68.000000,,2013-02-22 00:01:00,
2013-02-21 16:11:00,40.0,38.0,-100.00,South,176,0.0,8.0,94,0.00,,,0.27,68.000000,,2013-02-22 00:11:00,
2013-02-21 16:32:00,41.0,37.0,-100.00,SSW,196,1.0,7.0,84,0.00,,,0.27,50.000000,,2013-02-22 00:32:00,
2013-02-21 16:42:00,41.0,37.0,-100.00,SSW,196,1.0,7.0,84,0.00,,,0.27,50.000000,,2013-02-22 00:42:00,
2013-02-21 16:52:00,41.0,37.0,-100.00,SSW,196,1.0,7.0,84,0.00,,,0.27,50.000000,,2013-02-22 00:52:00,
2013-02-21 17:01:00,41.0,37.0,-100.00,SSW,196,1.0,7.0,84,0.00,,,0.27,50.000000,,2013-02-22 01:01:00,
2013-02-21 17:11:00,41.0,37.0,-100.00,SSW,196,1.0,7.0,84,0.00,,,0.27,50.000000,,2013-02-22 01:11:00,
2013-02-21 17:42:00,41.0,37.0,-100.00,South,184,0.0,5.0,85,0.00,,,0.22,29.000000,,2013-02-22 01:42:00,
2013-02-21 17:52:00,41.0,37.0,-100.00,South,184,0.0,5.0,85,0.00,,,0.22,29.000000,,2013-02-22 01:52:00,
2013-02-21 18:01:00,41.0,37.0,-100.00,South,184,0.0,5.0,85,0.00,,,0.22,29.000000,,2013-02-22 02:01:00,
2013-02-21 18:11:00,41.0,37.0,-100.00,South,184,0.0,5.0,85,0.00,,,0.22,29.000000,,2013-02-22 02:11:00,
2013-02-21 18:32:00,39.0,36.0,-100.00,South,191,0.0,0.0,90,0.01,,,0.20,3.000000,,2013-02-22 02:32:00,
2013-02-21 18:42:00,39.0,36.0,-100.00,South,191,0.0,0.0,90,0.01,,,0.20,3.000000,,2013-02-22 02:42:00,
2013-02-21 18:52:00,39.0,36.0,-100.00,South,191,0.0,0.0,90,0.01,,,0.20,3.000000,,2013-02-22 02:52:00,
2013-02-21 19:01:00,39.0,36.0,-100.00,South,191,0.0,0.0,90,0.01,,,0.20,3.000000,,2013-02-22 03:01:00,
2013-02-21 19:11:00,39.0,36.0,-100.00,South,191,0.0,0.0,90,0.01,,,0.20,3.000000,,2013-02-22 03:11:00,
2013-02-21 19:32:00,40.0,37.0,-100.00,South,185,0.0,1.0,90,0.00,,,0.15,0.000000,,2013-02-22 03:32:00,
2013-02-21 19:42:00,40.0,37.0,-100.00,South,185,0.0,1.0,90,0.00,,,0.15,0.000000,,2013-02-22 03:42:00,
2013-02-21 19:52:00,40.0,37.0,-100.00,South,185,0.0,1.0,90,0.00,,,0.15,0.000000,,2013-02-22 03:52:00,
2013-02-21 20:01:00,40.0,37.0,-100.00,South,185,0.0,1.0,90,0.00,,,0.15,0.000000,,2013-02-22 04:01:00,
2013-02-21 20:11:00,40.0,37.0,-100.00,South,185,0.0,1.0,90,0.00,,,0.15,0.000000,,2013-02-22 04:11:00,
2013-02-21 20:32:00,40.0,37.0,-100.00,South,187,2.0,13.0,88,0.00,,,0.11,0.000000,,2013-02-22 04:32:00,
2013-02-21 20:42:00,40.0,37.0,-100.00,South,187,2.0,13.0,88,0.00,,,0.11,0.000000,,2013-02-22 04:42:00,
2013-02-21 20:52:00,40.0,37.0,-100.00,South,187,2.0,13.0,88,0.00,,,0.11,0.000000,,2013-02-22 04:52:00,
2013-02-21 21:01:00,40.0,37.0,-100.00,South,187,2.0,13.0,88,0.00,,,0.11,0.000000,,2013-02-22 05:01:00,
2013-02-21 21:11:00,40.0,37.0,-100.00,South,187,2.0,13.0,88,0.00,,,0.11,0.000000,,2013-02-22 05:11:00,
2013-02-21 21:32:00,41.0,37.0,-100.00,South,184,1.0,10.0,87,0.00,,,0.11,0.000000,,2013-02-22 05:32:00,
2013-02-21 21:42:00,41.0,37.0,-100.00,South,184,1.0,10.0,87,0.00,,,0.11,0.000000,,2013-02-22 05:42:00,
2013-02-21 21:52:00,41.0,37.0,-100.00,South,184,1.0,10.0,87,0.00,,,0.11,0.000000,,2013-02-22 05:52:00,
2013-02-21 22:01:00,41.0,37.0,-100.00,South,184,1.0,10.0,87,0.00,,,0.11,0.000000,,2013-02-22 06:01:00,
2013-02-21 22:11:00,41.0,37.0,-100.00,South,184,1.0,10.0,87,0.00,,,0.11,0.000000,,2013-02-22 06:11:00,
2013-02-21 22:32:00,40.0,38.0,-100.00,South,185,1.0,10.0,92,0.00,,,0.11,0.000000,,2013-02-22 06:32:00,
2013-02-21 22:42:00,40.0,38.0,-100.00,South,185,1.0,10.0,92,0.00,,,0.11,0.000000,,2013-02-22 06:42:00,
2013-02-21 22:52:00,40.0,38.0,-100.00,South,185,1.0,10.0,92,0.00,,,0.11,0.000000,,2013-02-22 06:52:00,
2013-02-21 23:01:00,40.0,38.0,-100.00,South,185,1.0,10.0,92,0.00,,,0.11,0.000000,,2013-02-22 07:01:00,
2013-02-21 23:11:00,40.0,38.0,-100.00,South,185,1.0,10.0,92,0.00,,,0.11,0.000000,,2013-02-22 07:11:00,
2013-02-21 23:42:00,40.0,38.0,-100.00,South,187,1.0,4.0,93,0.00,,,0.11,0.000000,,2013-02-22 07:42:00,
2013-02-21 23:52:00,40.0,38.0,-100.00,South,187,1.0,4.0,93,0.00,,,0.11,0.000000,,2013-02-22 07:52:00,